Weather in Taurage

Lithuania     55°15′02″N   22°17′32″E
temp.,
°C
wind,
m/s
gust,
m/s
humid.,
%
clouds,
%
prec.,
mm/h
press.,
hPa
HPBL,
m
28 july, wed
wed2800:00+17w349587 0.0 101166
03:00+17wsw3596100 0.0 1011101
06:00+16wsw22967 0.0 101133
09:00+20sw248291 0.0 1012269
12:00+26sw34527 0.0 10111124
15:00+28wsw4640100 0.0 10102344
18:00+28wsw354379 0.0 10091853
21:00+23w346062 0.1 100986
29 july, thu
thu2900:00+17s229039 0.9 100923
03:00+17wsw249699 1.2 100999
06:00+16wsw279929 0.0 1009199
09:00+20w47845 0.0 1008580
12:00+25wsw575147 0.0 10081773
15:00+24w685495 0.0 10081424
18:00+24w465057 0.0 10071186
21:00+19wnw48724 0.1 1008569
30 july, fri
fri3000:00+15sw23925 0.1 100858
03:00+14sw379631 0.3 1008146
06:00+13ssw3109617 0.2 1007221
09:00+18sw611785 0.4 10071034
12:00+22wsw8124193 0.0 10062203
15:00+23w913365 0.0 10052511
18:00+22w713381 0.0 10052114
21:00+18w612610 0.0 1004873
31 july, sat
sat3100:00+18wsw6136065 0.0 1005926
03:00+16sw512710 0.0 1005540
06:00+12sw378852 0.0 1005142
09:00+19sw4762100 0.0 1005404
12:00+24ssw4544100 0.0 1004990
15:00+26ssw794240 0.0 10031821
18:00+19w3886100 1.2 1003434
21:00+17wnw388692 1.6 1003267
1 august, sun
sun100:00+14sw35930 0.0 100486
03:00+13ssw4119138 0.0 1005241
06:00+13sw5138924 0.0 1005386
09:00+17wsw6118271 0.3 1005879
12:00+21w696497 0.7 10071444
15:00+22w5750100 1.1 10071865
18:00+21w4554100 0.0 10071095
21:00+18w2272100 0.0 100742